Starlink 30989

operational
NORAD ID: 58510 Int'l Des: 2023-191 Owner: SPXS Country: US Constellation: starlink
LEOCIRCULAR

关于 Starlink 30989

正在加载描述...

实时位置

正在加载3D地球...

即将过境

高度历史

Altitude vs Time

uPlot chart will show altitude changes over time

两行轨道根数

1 58510U 23191C 25349.90561905 -.00000193 00000-0 76102-6 0 9999
2 58510 43.0026 201.6212 0001052 267.0082 93.0639 15.02545289112862
Epoch: Dec 15, 2025 • Age: 8 hours

当前状态

高度 562.4 km
速度 7.59 km/s
星下点 40.76°N, 90.92°E
发射日期 Dec 7, 2023
运行时间 2 years
类型 internet

技术详情

分类 Payload
质量 730.00 kg
干质量 700.00 kg
总质量 730.00 kg
长度 0.30 m
直径 4.10 m
跨度 29.00 m
形状 Box + pan
制造商 SPXS
平台类型 Starlink V2M
阶段状态 In Orbit
所有者/国家 SPXS/US

大型星座

Loading constellations...